Regional Weather Roundup
Issued by NWS

Home | Current Version | Previous Version | Graphics & Text | Print | Product List | Glossary On
Versions: 1 2 3 4 5 6 7 8 9 10 11 12 13 14 15 16 17 18 19 20 21 22 23 24 25 26 27 28 29 30 31 32 33 34 35 36 37 38 39 40 41 42 43 44 45 46 47 48 49 50
000
ASUS43 KMKX 200111
RWRWI

WISCONSIN REGIONAL WEATHER ROUNDUP
NATIONAL WEATHER SERVICE MILWAUKEE/SULLIVAN WI
800 PM CDT TUE AUG 19 2014

NOTE: "FAIR" INDICATES FEW OR NO CLOUDS BELOW 12,000 FEET WITH NO
SIGNIFICANT WEATHER AND/OR OBSTRUCTIONS TO VISIBILITY.

WIZ001-002-006>008-014>016-023>028-200200-
NORTHWEST WISCONSIN

CITY           SKY/WX    TMP DP  RH WIND       PRES   REMARKS
SUPERIOR ARPT  MOCLDY    63  61  94 CALM      29.77R
ASHLAND        CLOUDY    62  59  90 NE5       29.78S
HAYWARD        MOCLDY    65  64  97 NE5       29.78R
SIREN          RAIN      68  65  93 CALM      29.77R
RICE LAKE      CLOUDY    69  65  90 CALM      29.77R
LADYSMITH      CLOUDY    69  63  80 N6        29.78R
EAU CLAIRE     CLOUDY    69  66  90 N3        29.74S
MENOMONIE      CLOUDY    74  62  65 NW3       29.75S
NEW RICHMOND   CLEAR     70  64  80 W3        29.76S
OSCEOLA        CLEAR     72  65  79 CALM      29.78R
$$

WIZ003>005-009-010-017-018-200200-
NORTH CENTRAL WISCONSIN

CITY           SKY/WX    TMP DP  RH WIND       PRES   REMARKS
WOODRUFF       PTCLDY    63  58  84 CALM      29.77S
RHINELANDER    CLOUDY    63  59  87 CALM      29.77S
EAGLE RIVER    CLOUDY    60  59  96 NW5       29.76S
LAND O LAKES   CLOUDY    61  58  91 NW3       29.77S
PHILLIPS       MOCLDY    64  62  93 CALM      29.76S
TOMAHAWK       PTCLDY    63  59  87 NW3       29.77S
MEDFORD        LGT RAIN  64  63  96 W3        29.77R
MERRILL        CLOUDY    66  64  94 N3        29.75S
$$

WIZ029-030-035-036-043>047-200200-
CENTRAL WISCONSIN

CITY           SKY/WX    TMP DP  RH WIND       PRES   REMARKS
WAUSAU         MOCLDY    66  64  93 NW5       29.74R
MOSINEE        PTCLDY    64  64 100 NW6       29.76R
MARSHFIELD     CLOUDY    69  63  81 NW7       29.75R
STEVENS POINT  MOCLDY    65  61  87 N3        29.75R
WAUPACA        PTCLDY    73  64  73 N5        29.73R
WAUTOMA        PTCLDY    70  66  86 CALM      29.74R
WISC RAPIDS    PTCLDY    69  62  78 W3        29.75R
CAMP DOUGLAS   CLEAR     67  66  96 W2        29.75R
$$

WIZ011>013-019>022-031-037>040-048>050-200200-
NORTHEAST WISCONSIN

CITY           SKY/WX    TMP DP  RH WIND       PRES   REMARKS
ANTIGO         CLOUDY    64  63  96 N6        29.76R
STURGEON BAY   CLOUDY    66  63  88 CALM      29.71S
GREEN BAY      MOCLDY    71  65  81 NW12      29.71R
MANITOWOC      PTCLDY    73  64  73 W3        29.71R
APPLETON       MOCLDY    72  63  73 W9        29.73R
CLINTONVILLE   CLOUDY    68  63  83 NW7       29.72R
OSHKOSH        CLEAR     72  63  73 W5        29.72R
$$

WIZ032>034-041-042-053>061-200200-
SOUTHWEST WISCONSIN

CITY           SKY/WX    TMP DP  RH WIND       PRES   REMARKS
LA CROSSE      PTCLDY    75  64  68 NW3       29.73S
SPARTA         CLEAR     72  62  71 CALM      29.75S
VIROQUA        FAIR      70  64  81 W3        29.77R
BOSCOBEL       CLEAR     76  64  66 CALM      29.74S
PRAIRIE DU CHI CLEAR     75  62  62 W5        29.75R
PLATTEVILLE    FAIR      72  65  78 W6        29.77S
$$

WIZ056-057-062-063-064-067-068-200200-
SOUTH CENTRAL WISCONSIN

CITY           SKY/WX    TMP DP  RH WIND       PRES   REMARKS
BARABOO/DELLS  CLEAR     71  61  71 CALM      29.75R
LONE ROCK      MOCLDY    79  64  60 NW3       29.74R HX  81
WATERTOWN      CLEAR     72  65  78 NW3       29.73S
MADISON        PTCLDY    73  64  73 CALM      29.74R
MIDDLETON      FAIR      71  63  74 W5        29.75R
MONROE         CLEAR     73  63  68 W6        29.76R
JANESVILLE     PTCLDY    75  61  60 W6        29.74R
$$

WIZ051-052-058>065-066-070>072-200200-
SOUTHEAST WISCONSIN

CITY           SKY/WX    TMP DP  RH WIND       PRES   REMARKS
MILWAUKEE      PTCLDY    74  65  73 CALM      29.72R
WAUKESHA       PTCLDY    72  63  73 W7        29.74R
MILWAUKEE/TIMM PTCLDY    75  63  64 CALM      29.73R
RACINE         PTCLDY    73  66  78 CALM      29.73S
BURLINGTON     CLEAR     70  64  81 W3        29.73S
KENOSHA        PTCLDY    74  66  76 CALM      29.73R
FOND DU LAC    CLEAR     71  61  70 W3        29.73R
SHEBOYGAN      CLEAR     71  62  73 W7        29.72R
WEST BEND      CLEAR     72  61  68 W5        29.73R
JUNEAU         CLEAR     72  38  29 CALM      29.75R
$$

LSZ147-162-200200-
LAKE SUPERIOR

STATION/POSITION TIME  TEMP    WIND        PRES    WAVE
                       AIR SEA DIR/SP/G            HT/PER
                 (UTC) (F)     (DEG/KT/KT) (MB)    (FT/S)
W MID LAKE BUOY  0050   56 56   20/ 12/ 14 1007.9R   2/ 4
DEVILS ISLAND    0100   59     100/ 13/ 14 1008.6R
PORT WING        0000   65      60/  3/  4 1008.1
SAXON HARBOR     0040   61      70/  4/ 11 1008.5R
$$

LMZ867-665-643>646-200200-
LAKE MICHIGAN

STATION/POSITION TIME  TEMP    WIND        PRES    WAVE
                       AIR SEA DIR/SP/G            HT/PER
                 (UTC) (F)     (DEG/KT/KT) (MB)    (FT/S)
N MID LAKE BUOY  0050   63 62  190/  8/ 10 1004.5F   2/ 5
NORTHPORT PIER   0000   68     290/  6/ 14 1005.4R
SISTER BAY       0026   65        CALM       N/A
ALGOMA LAKESHORE 2322          260/  8/ 10   N/A
KEWAUNEE LAKESHO 0000   70     290/  3/  4 1004.6F
SHEBOYGAN LAKESH 0100   70 65  200/  6/  7 1006.3R
ATWATER BUOY     0100   69     270/  2     1007.6R
MILWAUKEE LAKESH 0000   73      CALM  /  2   N/A
S MID LAKE BUOY  0050   69 67  130/  4/  6 1006.3R   2/ 5
KENOSHA   LAKESH 0100   72      CALM  /  2 1006.1R
$$

TC  - TEMPERATURE IN CELSIUS
VSB - VISIBILITY IN STATUTE MILES
WCI - WIND CHILL INDEX
HX  - HEAT INDEX




USA.gov is the U.S. government's official web portal to all federal, state and local government web resources and services.